Regional Weather Roundup
Issued by NWS

Home | Current Version | Previous Version | Text Only | Print | Product List | Glossary Off
Versions: 1 2 3 4 5 6 7 8 9 10 11 12 13 14 15 16 17 18 19 20 21 22 23 24 25 26 27 28 29 30 31 32 33 34 35 36 37 38 39 40 41 42 43 44 45 46 47 48 49 50

000
ASUS43 KFSD 230602
RWRSD

WEATHER ROUNDUP FOR SOUTH DAKOTA
NATIONAL WEATHER SERVICE SIOUX FALLS SD
100 AM CDT THU MAR 23 2017

NOTE: "FAIR" INDICATES FEW OR NO CLOUDS BELOW 12,000 FEET WITH NO
SIGNIFICANT WEATHER AND/OR OBSTRUCTIONS TO VISIBILITY.


SDZ001>005-009-010-012>017-230700-
NORTHWEST AND NORTH CENTRAL SOUTH DAKOTA

CITY           SKY/WX    TMP DP  RH WIND       PRES   REMARKS
BUFFALO          N/A     44  37  76 NE10      29.68F
FAITH            N/A     43  35  73 SE14      29.74R
MOBRIDGE       CLEAR     40  27  59 SE16      29.79F
$$

SDZ012>016-024>037-041>051-057-063-072>074-230700-
SOUTHWEST AND SOUTH CENTRAL SOUTH DAKOTA

CITY           SKY/WX    TMP DP  RH WIND       PRES   REMARKS
RAPID CTY ARPT PTCLDY    43  37  79 S10       29.74F
PIERRE         MOCLDY    46  30  53 SE17      29.85S
CUSTER         CLOUDY    44  35  70 SW5       29.82S
ELLSWORTH AFB  PTCLDY    51  40  66 S9        29.73F
PHILIP         CLOUDY    47  35  63 S5        29.78F
PINE RIDGE     PTCLDY    50  38  63 S23G31    29.79F
SPEARFISH      MOCLDY    45  41  87 W7        29.75S
WINNER         FAIR      47  29  49 S16       29.90S
$$

SDZ004>011-016>023-039-040-230700-
NORTHEAST SOUTH DAKOTA

CITY           SKY/WX    TMP DP  RH WIND       PRES   REMARKS
ABERDEEN       CLEAR     36  26  67 S21G29    29.94F
WATERTOWN      PTCLDY    35  25  66 S22G30    29.99F WCI  23
BROOKINGS      CLOUDY    37  25  61 S21G28    30.03F
SISSETON         N/A     34  27  75 S18       30.02F WCI  23
$$

SDZ017-020-022-023-036>040-048>070-230700-
SOUTHEAST SOUTH DAKOTA

CITY           SKY/WX    TMP DP  RH WIND       PRES   REMARKS
SIOUX FALLS    CLOUDY    40  27  59 SE16G23   30.08F
HURON          CLOUDY    38  28  67 S20G30    29.96F
CHAMBERLAIN    CLOUDY    42  30  62 SE12      29.91F
MITCHELL       CLOUDY    43  28  55 SE22      29.99F
YANKTON        CLOUDY    43  27  52 SE17      30.06F
$$

ABBREVIATIONS USED IN REMARKS
   TC - TEMPERATURE IN CELSIUS
  WCI - WIND CHILL INDEX
   HX - HEAT INDEX
  VSB - VISIBILITY




USA.gov is the U.S. government's official web portal to all federal, state and local government web resources and services.